Location: Prescott
(34.5400°N, 112.4680°W)
Time: 12:29:36
(UTC-07:00)

Tiangong 1 - Visible Passes

Search period start: 17 February 2018 00:00
Search period end: 27 February 2018 00:00
Orbit: 250 x 272 km, 42.8° (Epoch: 17 February)

Date Brightness Start Highest point End Pass type
(mag) Time Alt. Az. Time Alt. Az. Time Alt. Az.
18 Feb 0.2 06:42:36 10° WNW 06:44:53 70° SSW 06:47:11 10° SE visible
19 Feb 1.2 06:37:31 11° W 06:39:29 33° SSW 06:41:36 10° SE visible
20 Feb 2.2 06:32:26 12° WSW 06:33:47 18° SW 06:35:28 10° S visible
